RH
25 40 43 41 49 50 49 59 52 44 52 54 58 70 74 73 68 53 51 57 48 41 46 44 39 36 31 26 23 27 42 51 48 46 46 43 44 42 36 35 38 36 28 23 22 22 22 24 27 28 29 30 30 32 33 33 33 31 29 38 48 47 44 46 48 49 53 58 57 53 51 48 47 45 42 39 37 37 37 35 34 32 30 25 25 41
32 38 38 48 58 54 54 66 67 57 58 69 74 72 72 69 59 46 42 46 40 37 42 40 36 33 27 26 30 39 50 53 49 47 46 44 45 41 36 38 38 30 24 22 22 23 25 27 29 30 31 32 33 35 34 35 33 30 34 46 51 47 45 45 44 44 46 49 48 44 43 41 38 36 36 40 41 41 42 41 41 40 39 37 31 36
45 34 31 45 53 58 73 77 64 54 53 61 65 56 48 46 44 41 40 43 41 35 30 33 38 35 32 38 49 57 56 50 47 46 45 44 44 40 39 39 32 23 23 23 23 25 28 30 31 32 34 35 35 36 36 35 33 35 44 51 50 46 44 43 41 40 39 40 40 38 38 37 36 37 42 49 51 50 51 50 52 55 53 52 47 44
29 26 36 50 53 55 68 70 57 47 44 42 41 39 36 35 37 34 33 38 42 39 34 40 44 39 46 60 62 58 53 48 46 44 42 42 41 41 41 35 25 22 23 23 25 28 30 32 34 35 36 37 38 38 38 37 38 45 51 50 46 44 42 40 38 37 38 40 40 40 40 41 42 46 53 58 59 58 60 61 64 67 66 64 63 58
23 30 41 54 66 60 48 50 49 36 38 49 44 38 36 33 33 32 35 42 43 45 47 45 38 39 57 71 65 56 52 50 47 46 45 43 41 38 34 28 23 24 24 26 29 31 33 35 36 38 38 40 40 41 42 42 47 52 51 47 44 40 37 36 36 37 40 40 41 44 46 48 52 58 65 67 69 69 69 74 75 74 73 72 70 69
36 42 39 42 54 56 36 27 37 34 36 51 48 40 35 29 35 42 48 51 43 42 46 40 40 50 57 61 64 61 58 56 51 52 48 38 34 31 26 24 23 25 27 29 32 33 36 37 39 40 41 43 42 43 46 47 51 50 44 38 33 30 29 30 33 36 40 45 48 54 58 61 65 71 76 76 76 75 74 80 80 77 77 75 76 76
40 41 42 42 40 45 40 27 35 40 36 43 46 46 44 41 49 52 52 54 45 37 38 39 45 52 45 44 61 67 63 61 58 59 50 31 28 27 24 25 24 27 30 31 35 37 38 40 42 44 44 45 43 44 46 44 41 36 29 25 22 22 23 24 29 37 47 55 60 65 68 71 75 78 78 75 73 73 74 78 81 82 80 77 76 73
40 35 42 50 40 33 30 22 31 39 33 42 51 50 50 49 52 54 55 59 53 42 45 50 49 52 50 52 70 74 64 63 64 65 54 33 28 26 23 26 26 30 33 34 39 40 42 44 44 47 47 45 44 44 41 33 28 24 21 21 21 22 23 24 32 44 54 60 63 67 69 71 74 72 70 68 69 74 76 78 81 81 78 74 71 69
40 33 36 39 36 32 20 13 32 45 35 42 56 54 53 55 55 58 59 59 59 50 48 52 49 52 54 54 70 75 64 66 68 68 58 38 29 26 24 28 29 32 35 38 43 44 46 47 46 48 47 44 43 38 31 25 23 23 22 24 24 25 26 29 36 43 49 54 58 62 64 66 68 67 68 71 72 76 80 83 82 80 78 75 72 71
34 39 44 33 32 37 29 26 44 51 36 40 54 49 46 53 53 56 56 51 55 58 51 45 39 43 43 37 55 71 69 73 72 68 59 40 29 26 25 28 30 35 40 43 47 47 47 47 46 48 45 42 39 32 27 27 26 26 27 28 28 29 30 33 37 41 45 49 53 60 65 67 70 74 77 79 81 83 86 88 86 84 80 76 75 69
31 44 52 37 34 37 35 36 44 51 43 39 44 37 30 33 39 61 75 57 44 53 61 52 37 39 43 33 47 70 77 80 76 69 60 42 30 26 26 30 34 40 45 46 48 48 49 49 47 48 46 40 34 30 29 29 29 30 31 32 33 33 35 38 42 47 50 53 58 63 68 74 80 84 83 80 81 82 85 86 86 86 81 79 76 63
42 51 50 38 38 38 38 35 34 52 56 40 35 33 27 28 39 67 84 67 42 37 48 52 40 40 44 37 48 66 66 66 66 60 55 43 30 25 28 35 40 46 50 51 52 52 51 51 50 49 45 37 32 30 30 30 31 34 35 37 39 40 42 45 49 53 56 59 63 65 69 77 83 84 82 78 76 80 88 91 91 91 87 82 69 57
45 49 41 37 37 33 34 33 33 51 55 39 36 40 39 42 49 55 56 53 45 31 30 39 39 38 38 39 52 55 45 44 43 37 36 33 26 26 34 42 47 53 56 55 55 54 54 52 52 49 41 34 31 31 32 33 35 37 39 42 45 47 49 52 54 57 60 62 64 66 69 74 78 80 83 86 88 90 94 96 96 94 85 74 65 70
41 45 40 35 33 30 30 30 34 42 42 37 41 45 45 47 50 50 46 46 45 35 28 29 36 43 38 45 60 50 36 35 30 26 28 28 30 35 42 50 54 55 55 56 56 56 55 53 51 47 39 34 33 34 35 36 37 40 43 46 49 51 53 56 58 60 64 65 64 66 70 74 80 86 90 95 99 96 92 95 93 83 72 70 78 92
38 38 38 30 25 29 31 31 33 32 35 44 44 41 40 39 45 51 51 50 45 41 37 29 46 63 49 53 70 55 40 35 26 27 34 37 43 47 50 55 56 56 56 58 58 56 54 52 49 45 38 35 36 37 37 38 41 44 47 50 52 54 56 59 62 64 65 65 65 68 74 80 85 89 88 88 94 98 100 98 85 71 72 85 97 100
39 35 38 33 28 32 32 38 41 31 35 49 48 45 48 46 46 49 50 50 47 52 53 43 55 68 53 55 65 52 43 39 31 36 43 48 53 53 55 58 59 61 60 58 57 54 52 51 49 44 38 37 38 38 40 41 44 47 49 52 54 57 60 62 64 66 67 67 69 73 76 79 81 83 82 79 87 99 101 91 77 75 88 99 98 87
39 36 38 35 34 36 33 41 45 32 33 46 44 42 47 44 39 43 49 51 53 58 56 47 49 52 49 55 53 44 46 45 41 48 51 52 55 56 61 64 63 64 60 57 56 53 51 51 49 45 40 39 40 40 43 44 46 49 52 55 58 60 63 66 67 67 68 70 72 74 75 77 77 79 81 81 88 98 93 81 80 91 101 99 85 70
44 41 38 36 36 35 33 41 47 40 38 45 45 40 42 48 51 57 59 55 59 60 49 43 46 44 46 55 52 47 52 51 49 53 54 54 59 63 65 64 62 60 56 55 54 52 51 51 49 45 41 42 43 43 45 46 48 52 55 58 61 64 66 68 69 69 71 73 74 74 75 77 78 79 85 90 95 97 89 85 92 98 93 81 71 72
53 48 45 40 35 34 36 38 43 47 45 42 41 38 42 54 62 65 62 57 63 67 55 46 46 47 51 58 57 54 55 55 54 56 59 60 62 64 62 58 56 53 52 53 53 52 52 52 50 44 43 46 47 46 47 49 52 55 58 62 64 67 70 70 71 72 74 75 74 75 76 77 80 83 89 93 93 92 90 90 92 85 76 75 83 94
55 49 49 44 37 37 39 37 37 43 49 48 42 41 44 48 53 56 56 55 62 68 65 56 51 55 59 55 53 55 57 59 61 64 65 63 60 59 56 53 51 51 52 54 54 53 53 53 50 45 48 52 50 49 50 51 56 59 61 65 66 70 72 72 74 75 75 75 75 76 76 78 83 86 88 89 87 88 89 89 86 83 86 93 95 93
55 51 50 45 43 42 36 35 33 31 41 50 48 48 50 47 52 58 55 57 63 62 64 67 62 57 51 44 45 54 58 59 64 69 65 59 57 54 51 51 51 52 55 55 54 55 54 51 49 51 56 56 51 52 53 55 60 62 64 67 69 73 74 73 75 76 76 75 75 75 79 84 87 88 87 85 86 89 92 93 94 96 97 93 85 81
54 57 58 54 52 43 30 30 32 28 34 46 50 54 59 54 53 60 62 64 68 64 60 70 74 60 43 39 46 53 55 57 61 63 58 55 53 52 51 53 54 55 55 55 56 55 52 51 56 60 59 55 54 55 57 59 62 63 66 69 73 76 76 75 76 76 75 74 75 79 85 89 89 87 85 84 87 93 96 94 92 91 89 87 87 91
52 62 70 70 59 40 33 40 44 41 40 45 48 54 63 60 52 58 64 61 66 68 61 65 75 64 44 40 46 50 52 54 55 54 54 54 54 54 55 55 54 54 53 54 56 53 55 60 63 62 57 55 57 57 58 62 63 65 68 73 78 78 76 77 76 74 73 74 79 85 88 90 89 85 82 83 88 91 91 91 90 90 93 96 98 99
54 63 62 60 51 37 38 44 45 46 43 41 45 53 61 57 49 57 63 63 74 77 66 67 72 58 42 41 44 47 52 52 52 55 55 56 57 56 56 54 53 53 53 56 58 58 63 66 62 59 56 57 58 58 61 63 64 68 73 78 80 78 76 78 76 72 73 78 84 89 89 88 86 83 81 83 87 88 90 94 98 99 100 101 101 100
48 57 53 55 55 46 43 42 40 43 41 36 41 52 58 52 52 62 65 72 81 66 54 69 72 50 38 39 39 43 52 55 54 56 57 58 59 56 54 53 52 54 59 63 64 64 66 64 59 57 57 58 58 59 62 65 68 73 79 82 81 76 76 77 73 72 76 84 88 90 89 86 82 81 80 83 87 88 91 95 97 99 99 100 101 101
42 51 51 56 65 61 57 53 45 41 42 40 39 46 51 48 52 60 63 74 76 58 53 67 67 49 38 37 41 49 58 60 57 58 59 59 57 54 53 54 56 62 68 70 69 68 67 63 59 58 58 58 59 61 64 68 73 80 83 82 79 77 77 73 70 75 83 88 91 90 90 86 82 81 81 84 87 88 91 94 95 98 99 100 101 100
53 60 54 54 63 60 54 48 40 40 48 49 47 49 51 50 53 60 69 73 67 63 65 59 55 58 50 45 55 62 63 64 62 60 59 54 53 55 55 56 63 71 72 72 74 74 69 63 60 59 59 60 63 65 69 74 82 88 88 82 79 79 75 68 72 83 90 91 91 90 89 85 81 82 82 84 87 88 92 95 96 99 100 100 101 100
59 66 63 61 61 54 49 45 40 45 49 47 50 53 52 54 56 58 64 61 56 72 78 54 50 64 60 56 66 68 65 64 60 56 53 53 55 56 56 62 72 74 70 74 80 79 73 67 63 61 62 66 70 72 77 86 92 94 89 82 80 77 69 68 81 91 91 90 90 88 86 84 81 82 83 86 91 94 97 98 99 100 100 100 101 100
61 73 72 66 61 56 52 47 43 46 47 44 50 51 48 54 58 55 57 55 56 72 72 52 53 64 62 62 67 65 63 61 55 51 52 55 56 56 62 72 77 75 73 79 85 82 76 69 63 65 71 76 79 84 91 96 96 91 85 82 79 70 63 73 91 96 92 91 92 87 84 82 81 84 89 93 94 91 93 98 100 100 101 101 100 98
56 77 82 73 66 58 51 47 46 48 49 46 47 47 45 49 54 55 56 53 53 58 55 52 61 63 59 63 63 58 57 55 51 52 55 55 55 62 73 78 77 79 81 85 87 81 74 70 71 77 83 86 90 96 99 98 93 87 84 82 75 66 69 84 96 97 93 93 92 87 85 85 87 93 96 90 81 76 83 97 101 100 101 99 95 94
50 73 86 80 71 61 50 48 49 47 49 50 48 46 46 47 51 56 55 52 57 62 58 59 72 71 60 58 58 54 53 53 52 55 56 54 58 71 82 83 82 84 85 85 85 79 74 77 82 84 86 91 98 100 99 96 91 86 85 79 69 70 84 96 98 95 94 93 90 86 87 91 94 93 86 78 75 79 91 101 101 100 101 96 93 95
60 75 86 85 78 66 49 45 47 43 47 61 61 50 49 52 54 55 55 55 60 67 71 78 89 84 64 54 55 53 52 53 54 56 56 57 66 79 87 86 86 86 86 86 84 81 82 84 83 84 89 97 101 101 100 96 90 87 84 75 70 81 96 98 95 95 94 91 89 88 93 98 95 85 75 76 86 96 101 103 101 101 101 97 95 96
74 73 79 87 82 64 47 46 51 49 57 74 69 51 49 54 52 53 57 55 53 64 82 93 89 72 57 54 57 57 54 54 55 56 56 62 75 85 87 86 86 85 86 86 83 84 87 86 86 92 98 101 102 100 96 91 90 88 80 74 81 93 97 95 96 96 92 91 92 93 99 103 95 82 76 84 98 103 102 102 102 101 100 98 98 96
88 78 77 84 78 67 57 50 52 58 64 67 54 41 45 51 53 62 64 54 52 63 73 76 68 58 56 58 59 59 56 54 56 56 56 69 85 90 87 83 81 81 83 84 82 81 82 87 95 100 100 100 102 97 91 90 89 80 72 81 95 97 94 96 98 94 92 93 95 97 102 100 89 79 81 93 104 103 101 102 101 100 101 100 98 97
83 80 77 79 81 77 67 61 70 71 58 49 43 40 44 46 48 57 55 48 56 65 65 65 64 59 59 57 55 58 57 56 58 55 57 72 83 82 78 73 70 78 86 83 78 80 86 95 102 100 100 102 98 90 89 90 82 73 79 95 100 95 97 100 97 94 96 98 99 101 100 90 80 80 90 101 104 101 101 102 100 100 102 100 98 99
68 77 73 73 80 74 63 73 87 70 44 42 46 43 45 48 51 59 61 56 59 64 65 67 65 59 57 57 57 59 58 57 57 50 54 71 75 69 68 69 72 83 87 80 79 88 96 100 100 98 98 97 89 87 92 88 77 81 96 101 98 97 100 99 96 98 101 101 100 98 89 80 81 91 99 102 102 102 102 101 100 101 101 100 99 100
66 77 69 64 74 73 67 76 76 58 49 54 51 45 47 51 52 59 67 64 59 62 65 65 64 61 58 60 62 59 55 56 55 50 54 68 70 64 65 72 78 83 84 85 90 96 98 97 93 86 81 82 87 95 96 84 79 92 102 99 98 101 99 97 100 102 101 100 96 87 79 82 92 100 102 102 102 102 101 100 101 101 100 99 99 99
56 67 68 68 75 75 72 78 75 67 67 65 53 43 43 47 44 46 59 66 62 63 64 61 63 64 61 64 64 57 59 66 64 58 60 66 66 65 70 78 81 80 85 93 98 98 96 91 83 78 80 89 97 98 88 78 83 98 102 98 100 101 99 101 103 100 98 94 85 79 82 92 100 101 101 102 102 101 100 101 101 101 100 100 99 100
61 73 78 76 78 75 73 82 88 81 72 63 51 40 41 47 42 39 56 67 63 64 65 63 65 66 65 70 67 60 71 85 79 65 61 66 69 69 73 76 78 82 88 95 100 102 97 87 80 85 94 98 94 85 78 79 91 101 101 99 101 102 102 103 100 97 93 84 78 83 93 100 101 101 102 102 101 100 101 101 101 100 100 100 100 100
83 89 82 72 72 75 78 85 89 83 71 57 44 42 47 44 38 54 80 80 65 64 68 67 68 68 69 74 72 68 77 88 83 69 64 70 73 72 73 74 76 85 90 90 97 102 93 84 89 97 96 88 80 77 79 89 100 102 100 101 103 103 102 100 95 90 84 79 83 94 101 101 100 102 103 102 100 101 101 100 101 100 100 100 100 100
91 90 83 76 72 75 81 84 82 78 70 56 42 43 47 42 51 82 99 82 65 67 71 71 71 72 75 75 71 68 70 74 74 70 71 75 73 72 77 78 78 87 91 90 97 99 90 90 98 95 84 76 77 84 92 99 102 99 98 102 103 102 99 92 86 83 80 82 92 100 100 99 101 103 103 101 100 101 100 100 100 100 100 100 100 100
80 78 79 79 73 70 71 75 78 76 64 49 43 42 46 62 85 92 80 67 68 73 74 72 71 74 77 73 66 65 67 70 72 73 77 79 76 78 85 83 81 85 86 88 95 96 95 101 99 86 77 79 88 97 101 100 99 99 100 101 99 96 91 83 82 84 84 88 95 99 97 97 101 103 102 101 101 101 100 101 100 100 100 100 100 100
62 65 76 77 67 62 66 75 86 83 59 42 45 48 52 71 83 74 64 69 76 76 74 73 76 82 80 70 64 66 70 73 76 79 81 82 83 85 82 76 78 82 82 87 92 91 96 101 91 79 82 89 96 102 101 98 100 102 102 99 94 88 83 83 89 90 85 87 93 96 95 97 102 104 102 101 101 100 100 101 100 100 100 100 100 100
61 59 72 78 68 66 79 85 79 66 49 42 49 53 55 63 67 67 73 79 78 77 77 78 86 87 73 64 68 74 75 77 81 85 86 87 90 86 69 62 74 85 87 92 95 95 98 95 85 84 92 97 99 101 100 100 101 101 99 93 86 84 87 93 97 89 82 85 92 93 94 99 102 103 102 101 101 100 100 100 100 100 100 100 101 100
62 48 53 67 66 62 66 63 50 41 42 46 47 48 55 64 69 75 81 80 80 83 83 88 93 79 57 59 74 79 79 83 89 91 90 91 93 81 65 68 85 91 92 95 96 96 94 88 88 97 100 99 100 100 100 101 100 96 91 86 86 92 99 99 94 86 84 90 92 92 96 99 101 103 103 102 101 101 101 100 100 101 100 100 100 100
50 37 39 50 57 55 47 39 39 42 46 47 47 52 62 70 76 82 84 83 85 85 85 95 96 72 55 66 80 83 88 92 90 88 93 97 88 69 68 86 95 91 92 95 95 96 92 89 96 104 101 99 102 101 99 100 96 89 86 88 94 100 100 96 90 89 92 94 93 93 97 100 100 101 102 102 102 102 101 100 100 100 100 100 100 99
46 36 41 43 51 60 55 44 43 46 47 48 50 56 66 76 83 86 85 88 89 83 82 91 83 60 55 70 83 90 95 92 86 92 101 92 68 60 81 99 94 90 96 97 92 95 97 98 102 102 99 100 101 100 100 98 90 86 88 94 101 101 97 95 94 95 97 97 93 94 99 102 102 101 100 101 102 101 101 101 101 100 100 100 100 100
48 41 48 47 49 56 54 46 44 47 51 51 54 64 74 83 88 84 84 93 92 82 81 80 64 50 57 74 87 97 97 89 89 100 96 68 50 71 100 97 84 92 102 93 87 94 100 102 101 99 100 100 97 99 103 97 88 89 93 98 103 102 98 98 98 98 101 99 95 96 101 104 104 102 98 98 100 101 101 99 98 100 101 100 100 100
43 45 49 49 53 56 53 49 50 57 59 53 58 70 78 84 88 85 87 94 87 75 72 60 39 39 59 73 84 96 100 95 92 90 76 55 59 91 107 90 83 98 101 90 92 100 101 101 100 97 100 102 100 101 102 94 88 92 97 100 103 102 100 100 100 100 102 99 96 98 102 103 102 101 98 96 96 98 100 100 99 99 100 100 100 100
43 51 51 57 70 70 61 55 58 69 71 63 66 76 81 87 90 85 89 95 80 61 51 34 18 25 41 55 78 98 98 87 76 71 66 65 79 99 102 91 92 101 100 96 100 102 101 102 101 98 98 100 101 101 97 92 92 97 100 102 103 102 103 103 101 101 103 100 97 100 103 102 101 100 98 96 95 95 97 99 101 101 101 101 100 100
42 47 48 58 68 63 52 50 58 70 72 67 69 76 83 90 89 85 93 92 65 37 24 18 25 39 38 43 73 95 83 59 54 61 63 65 82 99 97 90 95 101 101 101 102 101 103 103 100 100 99 98 100 99 94 93 97 100 102 104 103 103 105 104 102 103 104 101 99 102 104 103 100 98 97 96 96 96 95 95 97 100 102 102 101 100
Wind_Speed
7 4 3 1 4 5 5 5 4 2 3 4 3 4 6 7 7 8 9 6 1 2 7 7 8 11 13 14 14 13 18 24 20 17 18 23 25 26 28 25 20 20 16 9 3 6 12 16 18 21 22 23 24 26 29 32 34 36 33 25 21 23 24 23 25 27 28 28 29 32 34 35 36 36 38 39 39 39 39 40 40 40 40 38 37 38
5 5 0 5 7 6 3 3 3 2 2 1 3 4 5 5 8 9 8 6 1 1 6 4 7 13 13 14 12 7 10 16 19 19 20 23 24 26 28 23 20 17 11 5 7 11 15 18 19 21 22 24 26 28 31 33 36 36 28 19 19 23 25 26 28 29 29 30 32 36 38 39 40 40 40 40 40 39 39 40 40 40 39 38 37 37
5 1 6 7 4 3 2 4 3 1 1 1 2 2 5 4 6 8 7 5 1 0 8 7 9 14 13 10 7 4 6 11 17 20 21 25 26 26 26 22 19 13 7 7 10 14 17 19 20 22 23 24 27 29 31 33 34 30 20 17 21 26 29 31 33 33 34 34 35 38 39 40 41 40 39 38 38 39 39 39 37 36 35 35 36 36
3 3 6 3 1 3 1 4 4 3 1 3 2 2 6 5 3 6 5 2 1 3 9 11 10 10 9 5 5 6 1 5 12 18 21 25 27 26 24 20 15 9 8 9 13 15 17 20 20 22 23 25 28 30 31 31 29 22 17 21 26 29 32 35 36 37 37 37 38 39 39 40 39 38 37 37 38 38 37 37 35 34 35 36 36 36
3 5 3 3 3 2 2 4 4 3 5 3 4 4 7 7 4 7 7 7 6 4 4 7 9 7 4 3 4 6 6 8 12 17 18 20 24 24 20 15 10 10 11 12 15 17 19 20 20 21 23 25 28 29 28 26 21 16 18 24 29 33 36 37 38 38 38 39 40 40 39 39 37 35 35 35 36 36 35 35 36 37 37 37 37 37
4 4 3 3 4 5 2 4 1 0 4 5 5 7 8 8 7 9 10 10 8 5 0 4 6 6 3 2 2 2 5 6 9 14 16 19 22 21 17 13 11 12 13 13 15 17 19 18 18 20 22 24 27 26 22 19 16 18 24 29 32 35 37 37 38 38 38 38 38 37 37 36 36 34 34 34 35 37 37 37 38 38 38 38 38 38
2 3 3 2 3 6 5 3 2 2 4 5 5 5 5 6 7 10 10 6 5 7 2 4 1 6 5 3 2 0 4 5 6 8 12 18 20 18 16 13 11 12 13 13 15 17 18 17 17 19 22 25 25 21 19 19 21 25 28 31 33 35 36 37 38 37 36 35 35 34 34 34 34 35 36 37 38 40 39 39 39 39 39 40 40 41
2 4 4 4 5 5 4 3 3 4 3 5 5 2 4 8 9 11 9 4 5 6 4 1 3 5 6 4 3 2 6 5 5 5 8 14 17 17 14 12 12 12 12 13 16 17 17 16 17 20 22 23 21 19 22 25 27 28 29 31 33 35 37 38 38 36 35 34 34 35 36 36 36 38 41 41 41 40 39 39 39 40 41 42 43 44
2 2 3 2 4 3 3 2 3 5 1 7 5 2 6 9 11 10 7 6 4 4 6 3 2 3 7 3 2 2 5 3 3 5 5 10 15 14 12 11 10 11 11 13 16 16 16 18 18 20 21 20 19 21 26 28 27 29 30 33 35 37 38 38 38 38 37 37 38 38 38 39 39 39 40 41 41 40 39 39 40 41 43 44 44 45
2 1 2 1 0 4 5 4 4 6 5 8 5 5 7 7 8 6 4 5 3 1 6 7 2 2 7 4 1 2 2 3 4 4 4 9 13 11 10 9 9 10 11 14 16 16 17 19 19 20 20 20 21 24 26 26 28 30 33 35 37 38 39 39 39 39 40 40 40 39 38 38 38 38 38 39 39 39 39 39 41 42 44 45 45 48
5 2 2 2 3 4 3 5 4 6 6 7 7 6 7 6 3 1 1 2 2 2 6 7 2 2 5 4 2 0 2 4 6 5 4 7 10 8 7 7 7 10 14 16 16 17 19 20 21 21 21 21 22 24 26 28 31 33 35 37 38 39 39 39 39 39 39 40 39 38 37 36 36 36 37 38 39 40 41 42 42 43 44 45 47 48
8 2 2 3 3 2 3 4 3 2 1 4 5 5 7 7 4 4 4 4 2 5 5 5 2 2 4 4 2 2 3 5 7 6 4 5 7 5 6 7 8 12 14 15 17 20 22 23 23 22 21 22 24 26 29 31 34 35 37 37 37 38 38 38 39 39 39 39 38 38 37 36 36 37 39 41 41 40 41 41 41 42 43 46 47 45
6 1 3 5 2 2 3 4 6 3 4 5 4 5 6 6 5 5 6 3 3 8 4 2 1 1 6 3 4 5 5 7 7 8 8 6 5 5 5 7 10 13 15 17 20 23 24 24 23 21 21 24 26 29 31 34 36 37 37 37 37 38 38 38 39 39 39 39 39 39 38 38 39 40 40 39 37 39 42 42 41 42 43 45 43 37
6 4 4 3 1 3 4 3 6 4 4 6 3 3 3 3 4 6 6 4 6 10 5 3 1 4 5 3 4 6 5 7 10 12 12 9 7 5 5 7 12 15 17 20 22 23 24 23 21 21 22 25 28 30 33 36 37 37 37 36 37 38 39 40 40 40 40 40 41 41 39 39 38 38 37 36 36 40 42 42 42 43 43 41 36 32
4 5 4 2 2 4 3 1 3 3 4 4 2 2 1 1 2 5 4 5 9 13 9 1 1 4 4 3 2 8 8 10 13 13 12 10 7 5 6 9 13 17 20 22 23 24 24 23 21 21 23 26 29 32 34 36 36 35 36 36 37 39 40 40 41 41 41 42 43 41 39 38 37 37 37 38 38 38 38 40 41 41 39 35 30 30
1 5 5 3 3 2 3 2 1 2 4 3 2 2 1 2 3 3 6 6 7 10 9 2 2 4 1 2 1 6 6 9 12 11 11 9 7 8 9 12 16 19 20 23 24 26 25 23 22 23 26 29 31 33 34 34 34 34 35 37 38 39 40 40 41 42 43 43 41 40 40 40 40 39 40 39 37 36 37 39 39 38 34 30 28 31
2 6 7 6 5 0 1 3 1 1 2 2 1 3 4 4 5 2 7 4 3 6 7 3 4 3 1 1 3 4 3 6 8 8 11 8 7 10 12 15 18 19 20 23 24 25 25 23 23 24 26 29 32 33 33 34 34 34 36 37 39 40 40 41 42 43 43 41 41 42 42 42 41 41 40 38 35 36 37 36 36 35 30 27 31 34
1 7 7 4 4 3 3 5 4 1 1 1 2 5 4 1 4 2 3 5 5 8 7 5 8 7 3 3 3 2 3 4 3 4 6 6 6 11 14 17 19 20 23 25 24 25 26 25 25 24 26 30 32 32 33 33 33 34 36 37 38 40 41 42 43 42 42 41 43 44 43 41 41 41 38 35 33 34 34 33 32 32 31 32 33 30
1 5 7 1 3 7 6 4 4 3 1 2 3 3 2 2 4 2 2 5 7 9 8 10 12 7 4 4 2 1 6 7 6 6 6 8 11 15 18 20 24 27 29 31 30 29 30 28 24 22 27 31 33 34 33 32 32 33 36 37 38 40 42 42 42 41 41 43 44 43 42 41 40 37 34 32 32 31 29 29 31 32 33 31 26 22
1 1 5 3 2 6 5 3 4 5 3 1 3 4 2 2 4 3 2 2 4 8 9 12 12 4 2 3 3 3 5 5 8 9 8 12 17 19 21 25 29 31 32 34 32 31 32 28 23 23 30 33 34 34 32 31 32 34 35 37 39 41 42 42 41 41 43 44 43 42 42 39 35 32 31 30 30 29 28 28 30 30 28 25 25 25
1 1 4 6 4 4 4 2 3 4 4 3 3 4 4 2 2 3 3 1 1 7 8 10 12 4 1 0 5 3 2 2 5 6 7 13 17 20 24 27 29 30 32 32 32 32 31 25 22 28 33 34 34 33 31 31 33 35 36 37 39 40 41 41 41 43 44 44 44 42 39 34 31 30 30 29 29 29 27 26 26 25 25 27 28 27
1 1 3 7 6 5 6 4 1 2 3 1 2 2 3 3 2 5 6 1 1 3 5 9 13 7 0 3 4 3 1 1 3 6 8 14 19 24 27 28 30 32 32 32 32 30 25 21 26 33 35 34 34 32 31 33 34 36 37 38 39 39 39 40 42 44 45 44 43 38 33 30 29 29 29 28 28 26 24 25 26 26 26 27 25 21
1 1 2 6 5 8 12 4 3 1 3 3 2 2 1 1 1 3 8 6 3 3 5 8 11 7 1 4 5 6 5 2 5 9 14 20 26 29 30 32 34 34 33 34 31 25 22 26 32 34 34 35 34 33 33 34 35 37 38 38 38 38 39 41 43 44 44 42 38 33 29 28 28 28 27 27 26 25 25 26 27 26 26 26 23 21
1 1 2 6 6 7 9 2 4 1 2 2 3 2 1 2 2 4 6 6 4 4 4 6 10 7 1 6 6 3 5 9 16 22 25 28 32 32 32 36 36 36 36 33 25 22 27 32 33 33 35 36 35 35 34 34 36 37 37 36 36 37 39 41 43 45 42 37 33 29 28 28 27 27 26 25 25 25 25 26 25 25 24 24 23 23
3 0 2 6 7 7 7 5 3 3 2 2 4 2 1 3 5 3 3 3 2 4 4 7 11 7 2 3 6 11 16 18 25 33 33 31 31 31 33 36 37 38 36 27 23 28 31 31 32 34 36 36 37 37 35 35 36 36 35 35 36 38 41 43 44 43 38 33 30 28 27 27 26 25 25 26 26 25 24 24 24 24 23 23 23 24
2 1 1 1 4 8 8 8 8 8 6 4 6 7 5 3 4 5 5 4 5 7 6 6 10 10 11 15 15 15 16 19 27 34 33 31 30 31 35 37 38 36 30 25 27 30 29 30 34 36 36 38 39 37 35 36 36 34 33 34 36 39 42 44 44 39 33 30 28 26 25 26 25 25 25 25 25 24 24 24 24 24 23 23 23 24
1 1 2 5 5 6 8 10 11 10 9 10 14 15 13 6 1 1 3 4 7 10 9 8 11 17 20 18 13 13 15 17 20 25 29 30 32 34 37 38 37 33 29 30 32 29 28 34 36 36 37 39 38 36 36 36 33 31 33 34 37 40 43 45 40 33 29 28 27 26 26 25 25 25 25 25 25 25 25 25 24 24 24 24 23 23
3 2 4 6 8 10 11 13 14 11 10 14 16 15 14 12 6 4 4 7 8 9 11 13 17 22 21 14 12 14 17 16 18 24 31 33 33 36 39 37 35 34 32 33 33 31 33 36 36 38 39 37 36 36 35 31 28 30 33 36 38 42 45 42 33 27 27 28 27 27 26 24 25 24 25 25 25 25 26 26 26 25 24 23 22 23
4 3 4 3 6 11 11 13 14 11 9 11 12 12 12 12 10 6 6 8 6 7 12 18 23 23 16 13 14 18 20 21 25 32 35 34 37 40 40 35 34 35 32 32 35 37 36 36 38 39 37 35 36 34 29 27 29 34 37 38 42 45 44 37 27 24 27 28 26 26 25 24 25 24 24 24 26 30 31 29 26 25 24 23 23 24
3 3 3 1 7 11 11 13 12 9 9 10 10 10 8 8 8 7 7 8 8 11 16 21 24 19 11 12 18 24 28 31 34 37 37 37 41 42 38 34 36 38 34 33 39 40 36 36 38 38 37 37 34 27 24 29 35 39 39 41 45 46 40 30 23 24 28 28 26 25 25 25 24 23 24 29 35 37 33 27 25 25 24 24 24 23
1 3 2 2 5 11 11 10 8 8 10 9 8 8 7 8 8 7 6 9 12 15 19 20 18 13 9 15 24 30 34 36 35 36 37 40 43 39 35 36 39 40 38 38 40 39 35 37 40 39 39 36 27 22 27 35 38 39 40 44 46 41 32 25 23 25 28 26 25 25 25 24 24 25 31 37 37 32 27 25 25 25 25 25 24 21
2 2 3 5 4 9 8 9 14 15 10 5 6 10 10 9 9 8 8 10 14 18 20 16 10 8 11 20 27 30 34 35 32 34 38 41 41 37 36 40 41 40 40 41 40 37 37 40 41 40 38 30 21 23 31 36 38 40 43 45 43 35 27 23 25 28 28 25 25 26 25 25 27 32 39 38 30 25 25 26 25 26 26 25 23 20
2 1 3 3 4 9 9 11 14 13 8 4 4 8 12 11 11 10 10 14 15 13 12 9 8 12 18 23 23 25 28 29 30 35 39 37 36 37 40 42 40 39 41 42 39 36 37 40 40 37 30 22 22 29 34 37 39 41 43 42 35 28 24 25 27 27 26 25 26 26 25 27 32 39 41 34 26 25 26 26 26 26 25 24 21 19
2 2 2 0 1 9 13 13 10 7 8 3 1 3 8 10 12 14 16 19 14 8 7 10 12 17 21 22 21 23 26 29 35 41 38 32 34 39 41 41 40 42 43 40 38 39 40 39 34 29 22 21 28 37 39 39 40 41 41 35 27 24 25 27 27 26 26 27 27 25 25 31 38 42 38 30 26 27 27 27 27 25 24 23 21 19
2 3 2 1 2 6 8 9 9 8 5 2 4 4 9 10 12 18 21 16 9 9 12 14 16 20 24 26 28 31 33 38 42 40 32 31 38 41 42 44 46 45 41 39 41 43 39 31 27 26 24 27 37 42 40 39 40 40 36 28 24 26 27 26 25 26 27 27 25 24 30 38 42 39 33 28 28 29 28 28 27 24 23 22 20 19
0 1 1 1 1 4 6 7 6 9 5 2 2 9 15 12 10 16 18 9 4 8 14 16 18 23 28 33 35 36 39 42 40 32 28 35 44 46 46 48 48 43 39 41 43 38 29 26 28 29 29 34 41 40 36 38 40 37 30 25 26 27 26 25 26 27 27 26 26 30 38 42 39 34 30 30 31 30 29 28 26 23 23 22 20 19
2 1 1 2 1 2 6 7 7 10 7 3 4 10 13 12 11 12 14 7 4 11 19 19 19 25 30 34 37 40 42 37 27 24 31 41 48 50 49 47 44 41 40 40 35 27 26 32 36 37 38 38 37 34 34 39 40 33 27 26 27 26 26 26 26 25 26 27 32 39 43 39 33 30 31 32 31 29 27 26 24 22 21 21 20 18
3 1 1 2 2 2 4 7 8 10 7 2 4 10 13 20 23 17 12 6 5 19 29 24 21 26 30 32 36 39 36 25 14 18 35 47 51 51 48 43 40 40 38 35 29 27 32 39 43 43 40 35 30 32 38 42 37 29 26 27 27 27 26 25 25 26 29 34 40 43 39 32 28 30 32 31 28 27 25 24 22 21 19 19 19 17
5 2 4 2 2 2 3 5 5 8 6 2 8 14 19 26 27 19 12 6 8 24 34 28 25 30 30 32 36 33 23 13 10 22 40 50 50 48 44 40 40 38 34 31 29 31 37 42 42 39 33 30 34 40 41 38 30 25 25 27 28 26 25 25 27 31 36 42 43 39 31 28 29 31 30 28 26 25 24 23 22 20 18 18 18 17
5 4 4 3 3 2 2 3 3 4 4 5 13 18 24 29 22 12 9 9 15 29 34 29 30 33 32 34 33 22 13 12 17 31 46 50 48 45 40 38 39 35 33 34 33 34 40 42 37 33 32 37 42 41 36 31 26 25 27 28 28 26 26 29 33 38 42 43 38 32 29 30 30 28 26 25 25 24 23 23 22 19 18 17 17 18
3 2 2 2 4 4 3 4 4 4 3 6 14 20 29 30 16 5 5 13 25 34 34 31 34 33 32 35 30 22 23 29 33 41 48 47 45 43 38 37 36 32 34 37 34 36 41 38 32 33 38 41 39 34 31 29 26 27 29 28 26 26 29 35 39 41 41 38 33 31 31 30 27 25 24 23 24 24 23 22 20 18 18 18 19 20
2 3 2 2 3 5 3 4 6 4 1 12 23 26 30 22 7 4 14 24 31 35 33 34 35 32 32 36 34 33 37 41 42 44 44 43 42 40 37 36 36 35 38 38 34 37 37 32 32 39 42 38 34 31 29 27 27 29 29 26 27 31 36 40 41 39 36 33 33 33 31 27 24 23 22 22 23 24 22 19 18 17 18 20 21 23
1 1 4 3 2 4 5 5 5 3 4 22 29 21 17 11 7 16 27 30 30 31 33 35 32 30 34 38 38 39 41 42 43 42 40 40 38 36 37 38 37 38 39 36 35 36 32 30 38 43 40 36 33 29 27 27 29 28 25 26 32 38 40 40 37 35 33 34 34 32 28 25 22 21 21 22 23 22 20 18 17 18 20 22 24 25
1 1 3 3 1 4 4 2 4 7 12 28 26 12 8 13 19 25 27 27 28 31 32 31 28 31 38 40 39 40 40 40 41 39 38 38 35 35 40 40 37 37 36 33 33 32 30 35 42 41 36 34 31 28 27 27 27 26 27 33 39 40 38 36 34 34 35 34 33 30 26 23 21 20 22 22 21 20 19 17 17 18 20 22 23 25
3 2 2 3 2 3 5 9 13 14 18 28 24 13 14 22 25 24 23 26 30 31 28 26 29 37 42 39 37 38 37 37 37 37 35 35 35 39 43 39 34 34 33 31 31 31 34 40 40 35 35 34 30 28 27 24 24 29 35 39 39 36 35 34 34 35 35 33 31 28 25 21 20 20 22 21 20 20 19 17 17 18 19 20 21 24
3 1 1 2 4 6 11 17 18 14 19 26 21 13 17 24 24 22 23 25 27 28 28 28 33 39 40 36 34 35 34 35 36 35 33 35 41 45 41 34 33 33 30 29 30 34 38 39 35 34 35 33 30 28 24 21 27 36 39 37 34 33 34 34 35 35 34 33 30 26 23 22 21 21 21 19 18 19 19 18 18 18 18 19 21 24
2 1 1 2 3 4 7 12 13 16 25 27 19 16 22 25 22 22 26 26 24 25 28 32 37 39 36 34 33 32 32 34 34 33 35 40 46 44 35 31 34 32 28 28 33 36 37 35 35 36 34 33 31 26 22 27 35 37 35 33 32 33 34 33 34 35 34 32 29 25 22 23 23 22 21 19 17 17 17 17 16 17 19 20 21 23
2 2 2 3 3 5 10 13 14 21 22 16 14 20 25 25 24 27 27 25 24 25 28 32 36 37 34 33 32 29 30 33 32 33 39 45 44 37 31 33 35 30 28 32 36 35 33 33 36 35 32 32 31 25 26 36 39 34 32 32 33 34 33 32 34 34 32 30 27 23 22 23 24 23 22 19 18 17 17 17 15 15 19 21 21 21
3 4 4 5 6 7 10 10 15 19 14 10 18 27 27 25 28 29 26 25 27 29 31 34 36 34 31 32 31 29 29 31 31 35 42 43 39 32 30 33 34 29 30 35 35 32 32 34 36 33 30 31 30 28 33 39 36 31 32 34 33 33 32 32 33 32 30 28 25 23 23 23 23 23 22 20 17 14 14 16 17 16 17 17 16 15
2 3 3 4 6 6 6 9 14 12 10 15 26 29 26 26 28 27 25 26 29 31 34 38 38 35 33 33 31 28 29 32 35 38 40 38 34 30 30 33 32 29 30 33 33 32 34 35 33 30 30 31 29 31 36 37 32 31 34 33 32 32 31 32 33 31 29 27 24 23 24 23 22 22 22 22 19 14 10 11 13 15 16 15 11 9
3 4 3 3 5 9 13 16 16 13 16 23 28 27 25 26 27 25 25 27 30 33 34 36 35 34 35 34 30 27 31 36 37 37 38 37 33 29 30 33 31 29 29 31 32 35 37 34 30 30 32 31 29 32 36 34 31 32 34 32 32 31 29 30 32 30 28 26 24 23 24 23 23 22 22 21 21 19 16 12 9 10 12 13 11 8
Wind_Direction
24 40 60 205 239 258 260 196 200 216 180 241 259 237 256 267 275 267 266 264 172 275 257 231 252 269 278 279 285 270 217 207 210 193 180 182 179 176 174 171 166 154 148 146 104 29 16 11 6 2 358 355 353 352 350 349 349 348 349 347 337 331 333 336 336 335 336 334 331 329 326 325 323 320 317 314 313 311 309 307 306 305 304 303 298 291
37 64 295 239 222 227 257 195 193 220 175 227 244 255 277 262 267 265 261 277 161 250 263 231 274 282 279 282 293 279 211 206 204 186 177 179 175 173 174 167 155 147 143 115 44 22 15 10 5 0 356 354 352 350 349 348 348 348 351 346 330 329 332 334 335 334 333 330 326 323 321 320 318 316 314 312 310 308 306 304 303 303 301 300 297 291
28 45 264 262 216 173 52 70 108 178 190 219 231 276 297 280 280 277 260 266 113 255 287 301 301 285 281 286 307 308 230 215 203 189 177 172 168 170 169 159 149 140 113 65 30 18 14 7 3 358 355 353 349 348 349 348 350 352 351 340 331 331 332 331 331 331 330 326 322 320 318 316 314 313 310 307 305 304 303 303 301 299 297 295 294 290
9 268 262 283 128 153 28 26 49 16 338 235 249 293 287 297 319 290 279 279 225 246 281 303 302 284 291 302 342 349 347 158 175 178 171 168 166 165 160 150 141 111 66 43 23 16 11 5 1 356 353 349 346 347 348 349 353 353 345 337 333 331 330 329 328 328 326 322 320 318 316 314 312 309 306 302 301 301 301 301 298 296 295 294 293 292
261 253 280 30 60 127 254 337 33 13 336 283 246 244 264 286 273 262 297 316 300 270 264 313 308 282 313 336 327 360 55 99 131 143 145 151 153 152 145 130 107 67 46 34 22 14 7 3 357 352 349 344 345 348 349 354 357 347 335 333 329 328 328 327 326 325 323 321 319 318 315 313 311 306 303 300 300 301 301 300 297 295 294 294 293 293
274 281 325 13 26 50 39 325 11 112 332 313 259 230 241 278 285 276 306 325 318 305 221 23 336 287 316 338 269 345 45 75 111 118 120 130 135 134 124 101 74 50 39 30 19 7 2 359 351 347 345 342 345 349 352 356 350 333 330 330 329 329 328 327 327 326 325 323 322 320 316 314 310 306 304 303 303 303 301 298 295 293 292 292 291 292
276 340 27 74 23 30 38 330 267 125 24 317 256 205 227 271 292 288 303 325 303 291 299 74 316 269 299 321 259 51 75 90 96 101 115 123 123 120 106 83 64 46 32 20 8 0 359 356 348 342 341 342 346 346 343 342 335 331 333 335 335 335 333 332 331 330 329 326 323 320 316 313 310 307 305 304 303 301 300 296 292 290 290 291 292 293
256 344 14 50 34 20 10 324 242 136 73 284 240 149 304 294 288 286 292 274 262 297 322 112 172 259 286 287 287 85 110 111 93 95 118 120 117 113 96 70 56 38 20 9 0 357 356 351 343 337 336 340 342 337 333 333 334 336 340 340 339 338 336 335 334 332 330 326 323 320 316 312 309 306 303 302 301 299 296 293 291 290 291 292 293 294
239 332 320 6 20 336 275 256 178 140 177 266 256 276 288 281 278 279 278 266 279 342 313 296 133 262 275 273 331 77 119 148 146 134 139 129 119 108 85 60 44 26 11 3 357 354 350 343 337 332 332 335 334 331 331 332 335 338 341 340 339 338 337 336 334 331 328 324 320 317 313 309 305 303 301 301 300 297 294 292 291 291 292 294 294 295
244 234 244 155 161 255 253 246 174 155 235 280 304 298 274 263 267 273 272 281 332 31 278 285 147 222 285 292 61 76 136 195 180 159 155 136 123 102 73 53 34 17 4 355 350 346 341 337 333 327 327 329 329 329 330 332 336 338 339 339 337 337 336 334 332 329 325 322 319 316 312 308 305 303 302 302 301 297 294 292 291 292 294 295 296 298
294 273 205 166 207 233 274 282 217 183 247 313 349 327 303 287 287 1 343 347 2 266 256 269 203 144 297 288 126 274 250 183 155 141 142 133 126 106 67 48 29 9 355 347 342 338 335 332 327 322 323 326 327 328 330 333 336 337 338 337 335 335 333 331 329 326 323 322 320 317 314 309 305 304 303 303 300 296 294 292 292 293 294 294 297 300
328 20 192 284 276 275 355 324 284 214 292 5 9 344 327 316 349 18 356 40 10 279 257 252 250 134 263 286 65 21 6 100 121 131 142 139 137 120 64 44 17 355 345 340 334 331 330 326 322 319 321 326 327 328 330 332 335 336 336 335 333 332 330 328 326 324 323 322 321 318 314 309 305 304 304 302 299 296 293 292 292 293 294 296 300 301
328 305 281 311 320 33 19 337 325 346 30 19 2 13 2 338 354 346 326 352 285 280 267 196 331 288 256 295 79 89 62 81 107 122 133 132 118 94 50 15 348 340 336 333 329 324 322 320 317 315 319 325 327 328 331 333 335 335 334 332 330 329 328 326 325 324 323 321 320 317 313 308 306 305 305 302 298 296 295 293 294 295 297 299 300 297
329 306 324 345 11 32 38 346 325 329 350 346 354 47 22 346 339 314 304 309 288 291 286 141 77 300 283 334 93 122 104 106 114 113 109 91 71 53 5 331 327 330 330 326 320 316 316 315 309 308 316 324 326 330 333 334 334 332 331 329 328 327 326 326 325 324 322 321 319 317 313 310 308 306 306 302 298 297 296 296 297 298 299 298 294 288
329 307 323 1 332 354 14 286 265 282 313 310 177 136 31 214 262 282 274 284 297 298 300 32 68 265 276 331 134 146 127 105 108 104 80 54 37 5 327 319 323 323 319 316 312 311 313 309 301 304 317 325 329 331 332 332 331 329 327 327 326 325 325 325 325 323 321 320 320 318 315 312 309 306 305 302 298 294 293 296 298 299 297 291 286 287
279 265 268 294 295 327 341 270 190 8 319 279 153 78 341 185 189 260 254 249 281 292 292 305 231 224 200 336 193 148 122 94 99 82 40 17 2 347 322 312 314 310 308 310 312 312 312 307 299 303 316 326 330 331 330 329 328 326 325 325 325 324 324 324 324 322 321 321 320 317 315 311 308 306 305 302 298 293 294 297 299 297 293 287 288 297
329 272 279 321 320 337 349 272 246 43 312 303 6 305 263 177 150 260 278 283 332 299 288 298 292 295 62 274 220 160 105 77 88 50 9 347 345 335 308 299 302 301 305 310 310 310 311 307 298 302 316 327 330 329 328 328 326 325 324 324 324 323 324 324 323 322 322 321 319 316 314 311 308 307 305 303 298 295 297 299 297 295 291 291 299 302
262 280 293 323 304 297 316 292 275 217 152 41 306 281 272 136 105 122 285 316 326 293 285 299 300 302 314 282 222 162 34 30 58 35 347 309 313 312 301 300 303 307 311 312 312 312 314 309 298 303 320 328 329 328 326 325 323 323 324 324 323 323 323 324 323 323 322 320 319 316 314 312 310 308 306 303 300 299 299 298 296 297 297 298 300 298
182 291 303 305 252 293 322 335 317 305 186 187 258 299 35 327 317 5 324 306 302 293 291 297 298 290 271 270 192 36 359 356 348 355 342 320 320 316 316 317 317 319 319 318 317 316 317 311 300 309 326 330 330 328 325 323 322 323 323 323 323 322 323 324 324 323 321 320 319 317 315 313 311 309 306 304 303 301 299 296 296 299 300 299 296 293
143 276 294 293 273 304 336 16 345 320 308 314 318 337 57 205 257 273 290 293 295 296 298 303 305 289 231 259 129 56 355 350 339 341 338 327 326 323 321 321 320 321 319 318 317 317 319 312 304 320 330 329 329 327 324 323 322 323 323 323 323 322 323 324 324 323 321 320 319 317 315 313 311 308 306 304 304 302 299 298 297 298 298 296 295 293
7 183 269 288 312 340 342 328 309 306 309 342 340 315 315 296 267 279 279 151 295 297 303 308 303 289 202 154 117 97 359 341 325 316 310 314 317 320 319 318 319 319 317 317 317 317 317 312 315 329 330 328 328 326 324 322 322 324 324 323 323 323 324 325 324 323 322 321 319 317 315 313 310 309 307 306 305 303 301 300 299 298 296 294 295 294
320 187 259 295 328 332 293 271 250 232 218 225 237 244 269 277 321 323 307 299 136 277 287 295 296 297 86 127 125 127 174 217 297 288 300 315 317 320 321 322 323 322 320 320 319 319 319 320 328 330 328 328 327 325 324 322 322 324 324 323 323 324 325 325 325 324 322 320 319 317 315 312 311 311 309 308 307 305 304 303 303 302 299 300 301 299
178 120 270 277 270 268 274 291 74 124 159 153 203 222 210 236 4 305 292 301 303 276 280 279 285 299 45 133 142 144 154 150 335 322 320 324 326 326 328 329 328 326 324 323 321 323 329 331 331 329 327 327 326 324 324 322 323 324 324 323 323 324 325 325 325 324 322 321 320 317 314 313 313 312 311 310 310 309 308 306 306 305 304 305 306 303
16 74 330 291 265 258 272 332 74 53 63 62 293 288 178 296 294 216 247 302 307 278 295 290 286 303 89 161 176 109 39 1 348 341 333 330 330 332 332 330 329 327 325 324 324 330 333 331 329 328 327 326 325 325 324 322 324 325 324 323 324 325 326 325 325 325 323 322 319 316 315 315 314 313 313 312 311 311 310 308 308 307 306 306 303 300
343 305 1 333 326 323 322 348 352 308 2 345 284 276 196 301 319 282 268 327 303 265 292 298 293 307 13 282 305 357 3 348 340 338 333 331 331 331 331 329 326 325 323 323 328 331 331 329 328 328 327 326 325 324 324 324 324 324 323 324 325 326 326 326 326 325 324 321 318 317 317 317 317 315 315 314 313 312 312 311 310 309 308 306 304 303
310 240 79 45 326 322 321 322 318 317 329 316 288 299 311 317 323 310 315 331 303 299 308 294 290 304 322 322 331 352 351 337 334 333 332 331 330 330 329 326 323 324 323 322 326 328 328 328 328 328 327 326 325 324 324 325 324 323 323 323 325 326 326 327 327 325 323 320 319 319 318 319 320 317 316 316 315 315 314 314 312 310 309 308 306 306
62 259 211 182 210 259 272 279 294 313 317 305 303 309 314 318 340 358 344 317 300 308 310 300 305 312 317 326 342 349 340 331 328 329 331 330 329 328 326 323 324 326 325 323 324 326 329 330 330 329 328 326 324 324 324 325 323 322 324 327 328 327 328 328 327 324 323 321 320 319 319 320 320 319 319 318 317 317 316 315 314 311 310 309 309 308
78 311 259 205 221 246 260 275 290 303 298 291 298 304 308 319 346 19 317 292 304 317 308 312 320 315 315 335 351 338 333 330 327 329 330 328 327 326 325 325 328 330 328 326 327 327 329 330 329 328 328 326 325 325 325 324 324 326 329 330 330 329 329 329 326 324 325 323 320 320 320 320 321 321 320 319 319 319 318 316 314 312 311 311 309 308
116 259 256 216 252 263 268 279 286 290 281 278 290 302 311 322 337 337 288 275 297 307 300 311 317 313 319 345 344 332 329 328 327 328 327 326 327 326 326 329 332 332 328 327 330 331 330 329 330 329 328 328 328 327 325 326 331 333 333 332 331 331 331 329 325 324 326 324 322 322 322 322 322 322 323 323 321 318 316 315 314 313 312 310 308 308
118 258 266 268 283 283 281 279 281 286 285 290 304 318 329 324 317 311 287 287 302 298 300 310 313 315 336 346 330 326 326 326 326 327 328 329 329 328 330 333 334 334 331 329 333 334 331 330 332 331 330 331 330 327 328 335 338 337 335 333 333 333 331 330 326 325 326 325 323 323 323 324 323 321 321 320 317 315 314 314 314 314 312 309 309 312
77 283 320 39 312 297 289 283 290 295 293 303 324 342 351 341 335 336 322 320 320 310 310 319 318 318 336 331 323 325 329 329 327 329 331 330 328 329 333 335 335 335 335 334 334 334 333 334 334 333 332 332 330 330 337 341 341 338 335 334 334 332 331 330 327 326 326 325 325 325 324 322 318 314 315 317 318 319 318 315 314 314 314 314 317 320
56 300 346 38 339 299 300 323 324 315 310 337 10 359 353 354 351 344 332 327 322 317 321 330 328 319 327 329 327 329 332 329 328 331 330 326 329 335 338 338 338 336 335 336 335 335 337 337 335 333 332 331 335 342 344 342 339 337 334 333 333 332 331 329 327 327 327 325 326 327 322 317 314 314 318 323 325 325 323 320 318 318 319 321 323 323
84 355 329 15 328 299 315 332 320 313 328 11 31 358 352 349 340 332 327 325 325 328 333 333 327 327 332 333 330 329 330 329 330 330 325 324 336 344 342 340 340 337 336 336 337 338 339 337 334 332 331 336 348 348 344 340 337 335 334 333 333 332 331 329 328 328 328 327 328 326 319 315 317 320 324 329 330 325 323 323 322 321 323 326 326 325
78 48 311 295 311 300 315 328 321 330 354 351 153 30 358 340 336 334 329 328 339 6 355 330 330 332 331 331 328 325 328 329 328 325 323 331 347 348 342 340 339 337 337 339 339 338 335 333 334 336 337 344 348 344 339 338 336 335 335 336 335 334 332 330 330 331 329 328 328 325 319 319 322 325 328 331 329 326 326 326 325 327 329 329 328 327
37 19 308 205 201 275 306 345 348 342 353 161 159 33 1 346 342 334 326 329 359 18 351 338 334 330 327 327 327 326 328 327 325 323 327 344 351 346 341 340 337 337 339 341 339 335 334 340 351 353 347 341 339 338 337 337 337 338 340 340 337 335 333 331 332 332 330 330 330 326 322 323 325 328 331 331 329 329 330 330 330 331 332 330 329 328
62 4 314 237 248 298 332 4 336 301 306 122 91 358 355 354 348 333 324 330 63 16 350 341 331 328 328 328 328 330 329 326 324 325 335 346 347 344 341 338 336 339 342 340 338 338 346 360 2 356 346 337 335 337 337 338 340 341 341 339 336 336 335 333 333 333 333 334 330 324 323 326 328 331 331 330 330 330 331 331 332 333 333 332 330 329
138 94 14 333 345 344 330 323 291 284 305 49 18 346 349 347 338 331 322 323 44 8 350 340 330 330 331 330 331 333 330 326 324 329 338 343 343 341 339 336 337 340 340 339 341 348 355 353 348 346 342 337 336 338 338 337 340 340 337 337 338 338 336 335 334 335 334 330 324 323 326 330 331 330 328 329 331 332 333 334 335 335 336 334 331 333
76 86 104 335 339 56 339 319 315 315 323 44 336 332 351 346 334 326 312 298 18 1 349 340 331 332 332 332 335 336 332 329 327 330 337 340 340 338 336 337 339 340 339 342 347 346 342 340 340 341 340 339 339 338 336 337 339 339 338 339 340 338 337 338 338 335 331 326 325 327 331 333 331 328 328 331 334 335 336 338 338 339 341 338 336 340
36 41 112 86 328 7 346 312 309 309 304 348 333 336 354 346 331 323 315 312 9 356 345 338 332 333 333 335 338 337 334 333 328 328 334 336 336 336 337 338 339 338 341 349 347 339 336 338 340 341 341 340 337 335 335 338 341 341 341 341 341 340 340 341 337 332 329 327 329 333 335 332 329 329 332 334 337 339 342 343 344 346 348 346 345 349
18 7 54 38 307 293 299 273 257 257 261 331 335 339 348 343 335 336 329 326 349 346 340 336 334 334 336 337 338 340 336 330 322 324 330 332 334 336 338 338 338 338 345 350 344 336 337 340 341 342 340 337 335 336 340 343 344 343 342 342 344 344 343 338 332 329 328 329 334 337 334 331 332 334 336 339 341 344 347 349 350 352 355 357 358 360
352 336 22 1 299 298 285 267 280 257 241 328 334 345 353 348 348 22 332 321 335 336 333 335 334 334 337 337 336 334 327 323 322 323 328 332 334 335 336 338 340 340 344 346 342 339 341 341 340 339 337 337 340 343 346 346 344 342 343 345 347 344 338 333 330 329 331 334 339 339 334 335 339 340 341 345 347 348 352 354 354 357 3 8 10 11
341 326 328 314 306 314 294 288 306 270 187 357 349 356 6 2 351 334 325 323 328 329 331 335 333 332 337 335 332 329 325 324 326 327 331 334 335 335 337 339 341 340 340 341 341 343 345 343 338 337 338 343 348 347 346 345 343 343 346 347 344 338 333 331 331 333 336 340 341 339 338 342 345 345 349 352 351 351 355 0 4 8 13 16 18 19
317 318 313 294 283 312 307 318 323 277 8 6 358 1 19 16 324 321 324 323 327 331 332 332 330 333 337 334 330 330 328 327 329 331 333 334 335 338 340 339 338 339 339 340 341 344 346 342 338 339 343 348 349 347 345 344 344 345 346 342 338 334 332 334 336 338 341 343 343 342 343 346 349 353 357 357 355 356 1 9 17 22 24 23 23 24
236 225 306 285 296 346 335 318 296 291 345 3 0 351 358 348 331 327 325 322 328 332 331 330 332 336 337 334 331 331 329 329 331 332 334 334 336 339 339 336 336 338 339 342 343 344 343 339 338 342 347 350 349 346 345 346 346 344 339 336 335 335 336 339 341 342 343 345 345 346 348 350 355 1 2 0 0 4 10 18 27 30 31 29 27 25
241 230 226 219 239 266 239 254 282 302 337 351 347 335 338 339 333 330 328 325 328 330 331 334 336 336 335 335 333 332 331 332 332 332 334 335 336 338 337 336 338 339 339 343 344 338 335 337 340 344 348 349 348 347 347 349 347 340 336 335 337 339 342 343 343 343 346 347 348 349 351 354 0 6 6 5 6 9 15 23 30 35 35 31 28 23
254 265 168 217 268 259 249 265 283 309 334 337 335 332 336 337 334 334 332 329 329 331 332 333 334 334 335 336 336 333 332 332 332 333 335 334 334 336 337 338 340 341 341 344 343 336 335 340 345 346 346 347 348 349 348 344 340 338 337 339 342 345 344 343 343 346 349 349 350 352 355 359 5 9 9 10 12 15 19 22 27 34 35 30 26 22
285 271 230 260 295 304 285 284 302 329 332 328 329 332 335 337 337 336 335 332 331 333 331 328 330 334 337 338 337 335 333 334 335 334 333 333 334 337 339 340 341 342 342 341 340 338 339 344 346 346 347 348 349 348 342 337 337 339 341 345 347 346 344 344 347 349 350 350 352 355 359 4 8 8 10 14 17 20 27 30 31 34 33 25 18 17
309 309 280 265 275 285 278 282 310 327 322 316 324 333 336 339 339 339 339 335 332 334 332 330 332 336 338 339 339 336 334 337 338 333 330 332 337 340 340 338 341 343 338 334 337 340 343 344 345 346 347 348 347 342 336 336 339 343 348 350 349 346 345 347 349 350 350 353 354 357 3 8 9 8 10 15 18 22 27 31 34 38 33 20 10 8
296 312 295 280 287 280 269 290 328 332 319 317 333 335 337 339 338 339 338 334 333 336 334 333 336 339 340 341 341 338 338 339 337 331 330 335 341 342 337 337 342 342 335 333 339 344 344 344 346 348 348 345 342 335 333 337 342 348 352 352 349 347 348 350 351 352 353 355 357 1 6 10 11 11 11 14 20 30 34 31 30 31 28 21 13 12
303 302 290 299 312 304 299 335 349 339 313 321 332 334 335 336 337 337 336 334 337 339 336 334 337 340 343 345 344 342 340 338 335 332 334 340 344 341 336 338 341 340 337 338 341 344 344 345 350 351 347 343 338 333 334 341 348 353 353 351 349 350 352 352 352 353 356 358 1 5 7 9 11 13 13 14 18 27 44 51 44 33 24 20 22 25
282 282 303 309 291 289 302 324 337 328 312 318 327 332 333 334 335 335 334 334 337 338 336 337 339 340 343 345 347 343 337 336 336 336 338 343 344 339 338 341 341 339 340 340 342 343 345 349 353 350 345 344 339 334 337 347 355 355 352 351 351 353 355 355 355 355 357 1 4 6 8 9 10 12 14 16 17 18 23 37 58 60 44 30 25 33